Regional Weather Roundup
Issued by NWS

Home | Current Version | Previous Version | Graphics & Text | Print | Product List | Glossary On
Versions: 1 2 3 4 5 6 7 8 9 10 11 12 13 14 15 16 17 18 19 20 21 22 23 24 25 26 27 28 29 30 31 32 33 34 35 36 37 38 39 40 41 42 43 44 45 46 47 48 49 50
000
ASUS43 KDMX 260603
RWRIA

WEATHER ROUNDUP FOR IOWA
NATIONAL WEATHER SERVICE DES MOINES IA
100 AM CDT THU MAY 26 2016

NOTE: "FAIR" INDICATES FEW OR NO CLOUDS BELOW 12,000 FEET WITH NO
SIGNIFICANT WEATHER AND/OR OBSTRUCTIONS TO VISIBILITY.

* - THESE STATIONS ARE NOT NWS STATIONS...THUS NOT UNDER NWS
QUALITY CONTROL.  THEY ALSO DO NOT REPORT WEATHER SUCH
AS PRECIPITATION OR FOG.

IAZ001>003-012>014-020>022-031>034-043>046-260700-
   NORTHWEST IOWA

CITY           SKY/WX    TMP DP  RH WIND       PRES   REMARKS
CARROLL *      CLOUDY    66  66 100 CALM      29.83F
CHEROKEE *     CLOUDY    63  55  77 N12G26    29.86R
DENISON *        N/A     66  64  94 S6        29.82S
LE MARS *      LGT RAIN  61  59  94 E10       29.82F
ORANGE CITY *  LGT RAIN  66  54  63 W10G28    29.83F
SHELDON *      CLOUDY    63  54  72 N16G26    29.80F
SIOUX CITY     TSTM      63  58  83 SE16      29.81F
6HR MIN TEMP:  63; 6HR MAX TEMP:  80; 6HR PCP:  0.24;

SPENCER        TSTM      59  54  83 NW23G35   29.86S
6HR MIN TEMP:  58; 6HR MAX TEMP:  80; 6HR PCP:  0.12;

STORM LAKE *   PTCLDY    66  63  88 S6        29.84F
$$

IAZ055>058-069>071-079>083-090>094-260700-
   SOUTHWEST IOWA

CITY           SKY/WX    TMP DP  RH WIND       PRES   REMARKS
ATLANTIC *     LGT RAIN  70  66  88 SE8G21    29.83F
AUDUBON *      CLOUDY    68  64  88 CALM      29.85F
CLARINDA *       N/A     64  63  94 MISG      29.85F
COUNCIL BLFS * CLOUDY    70  68  94 S5        29.83S
CRESTON *      CLOUDY    70  64  83 S10       29.88F
HARLAN  *      PTCLDY    68  66  94 CALM      29.86F
LAMONI         TSTM      70  66  87 S8        29.87F
6HR MIN TEMP:  70; 6HR MAX TEMP:  76; 6HR PCP:  0.05;

RED OAK *      CLOUDY    72  64  78 S14G25    29.83F
SHENANDOAH *   CLOUDY    70  64  83 SE12G18   29.83F
$$

IAZ047>049-059>061-072>074-084-260700-
   CENTRAL IOWA

CITY           SKY/WX    TMP DP  RH WIND       PRES   REMARKS
AMES           CLOUDY    68  64  87 CALM      29.85F
6HR MIN TEMP:  67; 6HR MAX TEMP:  76;

ANKENY *       CLOUDY    70  68  94 CALM      29.85S
BOONE *        CLOUDY    70  66  88 CALM      29.85S
CHARITON *     CLOUDY    70  66  88 SE5       29.88R
DES MOINES     CLOUDY    72  64  76 S6        29.85F
6HR MIN TEMP:  72; 6HR MAX TEMP:  79;

GRINNELL*      CLOUDY    71  65  81 S5        29.88F
KNOXVILLE *    PTCLDY    72  64  78 SE3       29.86S
MARSHALLTOWN   CLOUDY    69  62  78 SE3       29.85F
6HR MIN TEMP:  69; 6HR MAX TEMP:  77;

NEWTON *       CLOUDY    72  68  88 S6        29.87S
PELLA *        CLOUDY    72  64  78 CALM      29.88S
PERRY *          N/A     70  68  94 S6        29.85S
$$

IAZ004>006-015-016-023>025-035-036-260700-
   NORTH CENTRAL IOWA

CITY           SKY/WX    TMP DP  RH WIND       PRES   REMARKS
ALGONA *       CLOUDY    68  64  88 S9        29.84S
CLARION *      CLOUDY    66  64  94 S7        29.84F
ESTHERVILLE    MOCLDY    61  54  77 W60G77    29.89R SQUALL  HAZE
6HR MIN TEMP:  63; 6HR MAX TEMP:  80; 6HR PCP:  0.32;

FORT DODGE *   PTCLDY    70  63  78 S6        29.84F
MASON CITY     MOCLDY    65  63  93 S8        29.85F
6HR MIN TEMP:  63; 6HR MAX TEMP:  78;

FOREST CITY *  PTCLDY    63  63 100 CALM      29.84F
WEBSTER CITY * CLOUDY    68  66  94 S10       29.83S
IOWA FALLS *     N/A     69  63  79 SE6       29.86F
$$

IAZ007>011-017>019-026>030-037>042-050>054-066-260700-
   NORTHEAST IOWA

CITY           SKY/WX    TMP DP  RH WIND       PRES   REMARKS
CEDAR RAPIDS   CLOUDY    70  63  78 S5        29.87F
6HR MIN TEMP:  70; 6HR MAX TEMP:  81;

CHARLES CITY * PTCLDY    68  63  83 S6        29.86F
CLINTON *      MOCLDY    68  62  81 S7        29.89
DECORAH *      CLEAR     66  63  88 CALM      29.86F
DUBUQUE        CLEAR     65  58  78 SW3       29.89F
6HR MIN TEMP:  64; 6HR MAX TEMP:  78;

MONTICELLO *   CLOUDY    66  61  82 CALM      29.88S
OELWEIN *      CLOUDY    66  61  82 S7        29.88S
WATERLOO       MOCLDY    67  60  78 SE6       29.85F
6HR MIN TEMP:  67; 6HR MAX TEMP:  79;

$$

IAZ064-065-067-068-078-260700-
   EAST CENTRAL IOWA

CITY           SKY/WX    TMP DP  RH WIND       PRES   REMARKS
DAVENPORT      PTCLDY    71  62  73 S9        29.89F
6HR MIN TEMP:  68; 6HR MAX TEMP:  83;

IOWA CITY      CLOUDY    70  62  76 CALM      29.89S
6HR MIN TEMP:  69; 6HR MAX TEMP:  82;

MT. PLEASANT * CLOUDY    73  64  73 S7        29.90S
MUSCATINE *    MOCLDY    70  63  78 S5        29.89S
QUAD CITIES    MOCLDY    75  63  66 S9        29.88F
6HR MIN TEMP:  69; 6HR MAX TEMP:  83;

$$

IAZ062-063-075>077-085>089-095>099-260700-
   SOUTHEAST IOWA

CITY           SKY/WX    TMP DP  RH WIND       PRES   REMARKS
BURLINGTON     CLEAR     70  65  84 S7        29.90S
6HR MIN TEMP:  69; 6HR MAX TEMP:  83;

FAIRFIELD *      N/A    N/A N/A N/A MISG        N/A
FORT MADISON * MOCLDY    72  64  78 S6        29.91S
KEOKUK *       CLOUDY    73  64  73 S8        29.90S
OSKALOOSA *    MOCLDY    72  63  73 S5        29.88F
OTTUMWA        MOCLDY    73  63  70 S8        29.87F
6HR MIN TEMP:  73; 6HR MAX TEMP:  80;

WASHINGTON *   CLOUDY    73  70  88 S7        29.90S
$$

ABBREVIATIONS USED IN REMARKS
   TC - TEMPERATURES IN CELSIUS
  WCI - WIND CHILL INDEX
   HX - HEAT INDEX
  VSB - VISIBILITY
$$





USA.gov is the U.S. government's official web portal to all federal, state and local government web resources and services.